Location: Wolf Lake
(46.8518°N, 80.6381°W)
Time: 10:16:23
(UTC-04:00)

ISS - Pass Details

Date: 22 March 2026
Orbit: 416 x 425 km, 51.6° (Epoch: 19 April)

Event Time Altitude Azimuth Distance (km) Brightness Sun altitude
Rises 21:55:22 0° 295° (WNW) 2,387 1.5 -23.2°
Reaches altitude 10° 21:57:29 10° 295° (WNW) 1,517 0.2 -23.6°
Enters shadow 21:59:52 42° 292° (WNW) 615 -2.5 -23.9°
